TimeICT,TemperatureF,Dew PointF,Humidity,Sea Level PressureIn,VisibilityMPH,Wind Direction,Wind SpeedMPH,Gust SpeedMPH,PrecipitationIn,Events,Conditions,WindDirDegrees,DateUTC
12:00 AM,78.8,73.4,83,29.83,1.9,West,17.3,-,N/A,Rain,Rain,280,2013-09-11 17:00:00
12:30 AM,77.0,73.4,89,29.83,1.9,WNW,10.4,-,N/A,Rain,Rain,290,2013-09-11 17:30:00
1:00 AM,78,77,94,29.79,4,WSW,9.2,,,Rain,Light Rain,250,2013-09-11 18:00:00
1:30 AM,77.0,73.4,89,29.80,1.9,West,13.8,-,N/A,Rain,Rain,260,2013-09-11 18:30:00
2:00 AM,77.0,73.4,89,29.80,1.9,WNW,10.4,-,N/A,Rain,Rain,290,2013-09-11 19:00:00
3:00 AM,75.2,73.4,94,29.77,3.1,Calm,Calm,-,N/A,Rain,Light Rain,0,2013-09-11 20:00:00
4:00 AM,77.0,73.4,89,29.77,3.1,SSW,5.8,-,N/A,Rain,Light Rain,200,2013-09-11 21:00:00
6:00 AM,78.8,75.2,89,29.77,1.9,WNW,8.1,-,N/A,Rain,Rain,300,2013-09-11 23:00:00
6:30 AM,77.0,73.4,89,29.80,4.3,Calm,Calm,-,N/A,Rain,Light Rain,0,2013-09-11 23:30:00
7:00 AM,78,77,94,29.76,4,Calm,Calm,,,Rain,Light Rain,,2013-09-12 00:00:00
7:00 AM,77.0,73.4,89,29.80,4.3,Calm,Calm,-,N/A,,Mostly Cloudy,0,2013-09-12 00:00:00
7:30 AM,77.0,75.2,94,29.80,4.3,Calm,Calm,-,N/A,,Mostly Cloudy,0,2013-09-12 00:30:00
8:00 AM,78.8,75.2,89,29.80,4.3,Calm,Calm,-,N/A,,Mostly Cloudy,0,2013-09-12 01:00:00
8:30 AM,80.6,77.0,89,29.83,3.1,Calm,Calm,-,N/A,,Mostly Cloudy,0,2013-09-12 01:30:00
9:00 AM,78.8,75.2,89,29.83,3.1,West,11.5,-,N/A,Rain,Light Rain,280,2013-09-12 02:00:00
9:30 AM,80.6,77.0,89,29.83,4.3,West,5.8,-,N/A,Rain,Light Rain,280,2013-09-12 02:30:00
10:00 AM,84.2,77.0,79,29.83,4.3,West,12.7,-,N/A,,Mostly Cloudy,280,2013-09-12 03:00:00
10:30 AM,84.2,77.0,79,29.83,4.3,West,13.8,-,N/A,,Mostly Cloudy,280,2013-09-12 03:30:00
11:00 AM,75.2,71.6,89,29.83,1.9,WSW,15.0,-,N/A,Rain,Rain,250,2013-09-12 04:00:00
11:30 AM,80.6,73.4,79,29.83,4.3,WSW,8.1,-,N/A,,Mostly Cloudy,240,2013-09-12 04:30:00
12:00 PM,84.2,75.2,74,29.83,5.0,West,16.1,-,N/A,,Mostly Cloudy,270,2013-09-12 05:00:00
12:30 PM,84.2,75.2,74,29.80,4.3,West,12.7,-,N/A,,Mostly Cloudy,260,2013-09-12 05:30:00
1:00 PM,78,75,88,29.78,3,West,11.5,,,Rain,Light Rain,270,2013-09-12 06:00:00
1:00 PM,75.2,73.4,94,29.83,3.1,West,8.1,-,N/A,Rain,Light Rain,280,2013-09-12 06:00:00
1:30 PM,77.0,73.4,89,29.80,4.3,West,3.5,-,N/A,,Mostly Cloudy,270,2013-09-12 06:30:00
2:00 PM,78.8,73.4,83,29.80,3.1,SW,12.7,-,N/A,,Mostly Cloudy,230,2013-09-12 07:00:00
2:30 PM,78.8,75.2,89,29.77,4.3,WSW,16.1,-,N/A,,Mostly Cloudy,250,2013-09-12 07:30:00
3:00 PM,82.4,75.2,79,29.77,4.3,West,131.2,-,N/A,,Mostly Cloudy,260,2013-09-12 08:00:00
3:30 PM,82.4,73.4,74,29.77,5.0,WSW,12.7,-,N/A,,Mostly Cloudy,250,2013-09-12 08:30:00
4:00 PM,82.4,73.4,74,29.77,5.0,West,8.1,-,N/A,,Mostly Cloudy,260,2013-09-12 09:00:00
4:30 PM,82.4,73.4,74,29.77,5.0,WSW,10.4,-,N/A,,Mostly Cloudy,250,2013-09-12 09:30:00
5:00 PM,82.4,75.2,79,29.77,4.3,SW,3.5,-,N/A,,Mostly Cloudy,230,2013-09-12 10:00:00
5:30 PM,80.6,73.4,79,29.77,4.3,Variable,3.5,-,N/A,,Mostly Cloudy,0,2013-09-12 10:30:00
6:00 PM,80.6,75.2,84,29.77,4.3,WSW,3.5,-,N/A,,Mostly Cloudy,240,2013-09-12 11:00:00
6:30 PM,80.6,75.2,84,29.77,4.3,Variable,3.5,-,N/A,,Mostly Cloudy,0,2013-09-12 11:30:00
7:00 PM,80,76,82,29.74,3,SW,5.8,,,Rain,Light Rain,230,2013-09-12 12:00:00
7:00 PM,78.8,75.2,89,29.80,3.1,Variable,4.6,-,N/A,Rain,Light Rain,0,2013-09-12 12:00:00
7:30 PM,78.8,75.2,89,29.80,4.3,Variable,3.5,-,N/A,,Mostly Cloudy,0,2013-09-12 12:30:00
8:00 PM,78.8,73.4,83,29.83,4.3,SW,5.8,-,N/A,,Mostly Cloudy,230,2013-09-12 13:00:00
8:30 PM,78.8,73.4,83,29.86,5.0,WSW,5.8,-,N/A,,Mostly Cloudy,240,2013-09-12 13:30:00
9:00 PM,78.8,73.4,83,29.86,5.0,SW,5.8,-,N/A,,Mostly Cloudy,230,2013-09-12 14:00:00
9:30 PM,77.0,73.4,89,29.89,5.0,Calm,Calm,-,N/A,,Mostly Cloudy,0,2013-09-12 14:30:00
10:00 PM,77.0,73.4,89,29.89,5.0,Calm,Calm,-,N/A,,Mostly Cloudy,0,2013-09-12 15:00:00
10:30 PM,77.0,73.4,89,29.89,5.0,SW,5.8,-,N/A,,Mostly Cloudy,230,2013-09-12 15:30:00
11:00 PM,78.8,73.4,83,29.89,5.0,Calm,Calm,-,N/A,,Mostly Cloudy,0,2013-09-12 16:00:00
11:30 PM,78.8,73.4,83,29.89,5.0,SW,8.1,-,N/A,,Mostly Cloudy,230,2013-09-12 16:30:00